Weather History for Saranac Lake, NY

Change the Weather History Date:

Thursday, February 21, 2013

  Actual Average Record
Temperature  
Mean Temperature 7 °F 16 °F  
Max Temperature 13 °F 29 °F 54 °F (1981)
Min Temperature 0 °F 3 °F -25 °F (1950)
Degree Days  
Heating Degree Days 58 49  
Month to date heating degree days 1085 1068  
Since 1 July heating degree days 5994 6370  
Moisture  
Dew Point 2 °F    
Average Humidity 81    
Maximum Humidity 92    
Minimum Humidity 69    
Precipitation  
Precipitation T in 0.06 in 0.51 in (2014)
Month to date precipitation 0.55 1.25  
Year to date precipitation 1.78 3.38  
Sea Level Pressure  
Sea Level Pressure 30.00 in    
Wind  
Wind Speed 7 mph (WSW)    
Max Wind Speed 14 mph    
Max Gust Speed 24 mph    
Visibility 4 miles    
Events Snow    
T = Trace of Precipitation, MM = Missing Value Source: NWS Daily Summary

Daily Weather History Graph

Daily Weather History Graph

Search for Another Location

Airport:

Trip Planner

Search our weather history database for the weather conditions in past years. The results will help you decide how hot, cold, wet, or windy it might be!

Date:

Astronomy

Feb. 21, 2013 Rise Set
Actual Time 6:46 AM EST 5:34 PM EST
Civil Twilight 6:17 AM EST 6:03 PM EST
Nautical Twilight 5:43 AM EST 6:37 PM EST
Astronomical Twilight 5:10 AM EST 7:11 PM EST
Moon 1:41 PM EST (2/21) 3:56 AM EST (2/21)
Length of Visible Light 11h 46m
Length of Day
10h 47m
Waxing Gibbous, 83% of the Moon is Illuminated
Feb 21
Waxing Gibbous
Feb 25
Full
Mar 4
Last Quarter
Mar 11
New
Mar 19
First Quarter

Hourly Weather History & Observations

Time (EST) Temp. Windchill Dew Point Humidity Pressure Visibility Wind Dir Wind Speed Gust Speed Precip Events Conditions
12:04 AM 10.4 °F -4.1 °F 6.8 °F 85% 29.71 in 1.0 mi WNW 11.5 mph 24.2 mph 0.00 in Snow Light Snow
12:16 AM 10.4 °F -4.1 °F 3.2 °F 73% 29.72 in 2.0 mi WNW 11.5 mph 20.7 mph 0.00 in Snow Light Snow
12:34 AM 8.6 °F -4.7 °F 3.2 °F 79% 29.73 in 1.2 mi WNW 9.2 mph - 0.00 in Snow Light Snow
12:44 AM 6.8 °F -6.9 °F 1.4 °F 79% 29.73 in 3.0 mi NW 9.2 mph 20.7 mph 0.00 in Snow Light Snow
12:51 AM 7.0 °F -4.5 °F 1.9 °F 80% 29.83 in 3.0 mi Variable 6.9 mph 19.6 mph 0.00 in Snow Light Snow
1:17 AM 6.8 °F -5.9 °F 1.4 °F 79% 29.74 in 2.5 mi West 8.1 mph - 0.00 in Snow Light Snow
1:26 AM 6.8 °F -2.0 °F 1.4 °F 79% 29.74 in 3.0 mi Variable 4.6 mph 17.3 mph 0.00 in Snow Light Snow
1:47 AM 6.8 °F -4.8 °F 1.4 °F 79% 29.75 in 2.5 mi Variable 6.9 mph 17.3 mph 0.00 in Snow Light Snow
1:51 AM 6.1 °F -5.6 °F 1.0 °F 80% 29.84 in 2.5 mi Variable 6.9 mph 17.3 mph 0.00 in Snow Light Snow
2:01 AM 6.8 °F -0.1 °F 1.4 °F 79% 29.75 in 3.0 mi Variable 3.5 mph - 0.00 in Snow Light Snow
2:05 AM 5.0 °F -4.1 °F 1.4 °F 85% 29.75 in 2.5 mi West 4.6 mph - 0.00 in Snow Light Snow
2:18 AM 5.0 °F - 1.4 °F 85% 29.75 in 1.8 mi Calm Calm - 0.00 in Snow Light Snow
2:28 AM 5.0 °F -8.1 °F -0.4 °F 78% 29.75 in 3.0 mi West 8.1 mph - 0.00 in Snow Light Snow
2:39 AM 3.2 °F -10.3 °F -2.2 °F 78% 29.75 in 4.0 mi West 8.1 mph - 0.00 in Snow Light Snow
2:51 AM 3.9 °F -8.2 °F -2.0 °F 76% 29.86 in 4.0 mi Variable 6.9 mph - 0.00 in Snow Light Snow
3:51 AM 1.9 °F -10.6 °F -4.0 °F 76% 29.87 in 4.0 mi West 6.9 mph - 0.00 in   Haze
4:13 AM 1.4 °F -12.5 °F -4.0 °F 78% 29.77 in 7.0 mi West 8.1 mph - N/A   Overcast
4:51 AM 1.0 °F -14.0 °F -4.0 °F 79% 29.89 in 7.0 mi West 9.2 mph - N/A   Overcast
5:51 AM 1.0 °F -11.7 °F -4.0 °F 79% 29.92 in 2.5 mi Variable 6.9 mph - 0.00 in   Haze
6:44 AM -0.4 °F -13.4 °F -5.8 °F 78% 29.83 in 3.0 mi West 6.9 mph - 0.00 in   Haze
7:13 AM -0.4 °F -13.4 °F -5.8 °F 78% 29.85 in 3.0 mi WSW 6.9 mph - N/A   Haze
7:51 AM -0.0 °F -15.3 °F -5.1 °F 79% 29.97 in 2.5 mi West 9.2 mph - 0.00 in Snow Light Snow
8:16 AM 1.4 °F -12.5 °F -5.8 °F 72% 29.88 in 4.0 mi WSW 8.1 mph - 0.00 in Snow Light Snow
8:49 AM 1.4 °F -11.3 °F -4.0 °F 78% 29.89 in 2.5 mi West 6.9 mph - 0.00 in Snow Light Snow
8:51 AM 1.9 °F -11.8 °F -4.0 °F 76% 30.00 in 2.5 mi WSW 8.1 mph - 0.00 in Snow Light Snow
9:16 AM 1.4 °F -16.1 °F -5.8 °F 72% 29.89 in 2.5 mi WSW 12.7 mph 17.3 mph 0.00 in Snow Light Snow
9:23 AM 1.4 °F -11.3 °F -5.8 °F 72% 29.90 in 3.0 mi WSW 6.9 mph 17.3 mph 0.00 in Snow Light Snow
9:51 AM 3.0 °F -11.5 °F -4.0 °F 73% 30.02 in 5.0 mi WSW 9.2 mph - 0.00 in   Haze
10:51 AM 6.1 °F -7.8 °F -2.0 °F 69% 30.04 in 7.0 mi WSW 9.2 mph - N/A   Overcast
11:51 AM 8.1 °F -3.2 °F 1.0 °F 73% 30.06 in 9.0 mi Variable 6.9 mph - 0.00 in   Overcast
12:33 PM 8.6 °F -5.5 °F 1.4 °F 73% 29.95 in 2.0 mi WSW 10.4 mph - 0.00 in Snow Light Snow
12:51 PM 9.0 °F -2.2 °F 1.0 °F 70% 30.07 in 3.0 mi West 6.9 mph 16.1 mph 0.00 in Snow Light Snow
12:58 PM 8.6 °F -2.6 °F 1.4 °F 73% 29.97 in 1.8 mi Variable 6.9 mph - 0.00 in Snow Light Snow
1:10 PM 8.6 °F -1.3 °F 1.4 °F 73% 29.97 in 2.5 mi WSW 5.8 mph - 0.00 in Snow Light Snow
1:28 PM 8.6 °F -5.5 °F 1.4 °F 73% 29.98 in 3.0 mi WSW 10.4 mph - 0.00 in Snow Light Snow
2:51 PM 9.0 °F 0.6 °F 3.0 °F 77% 30.15 in 6.0 mi Variable 4.6 mph - 0.00 in   Haze
3:28 PM 8.6 °F 0.1 °F 3.2 °F 79% 30.06 in 1.8 mi WSW 4.6 mph - 0.00 in Snow Light Snow
3:44 PM 8.6 °F -1.3 °F 3.2 °F 79% 30.06 in 1.2 mi WSW 5.8 mph - 0.00 in Snow Light Snow
3:51 PM 9.0 °F 2.4 °F 5.0 °F 84% 30.19 in 1.0 mi WSW 3.5 mph - 0.00 in Snow Light Snow
3:54 PM 8.6 °F 0.1 °F 5.0 °F 85% 30.07 in 0.8 mi WSW 4.6 mph - 0.00 in Snow Light Snow
4:09 PM 10.4 °F -0.4 °F 5.0 °F 79% 30.08 in 1.2 mi WSW 6.9 mph - 0.00 in Snow Light Snow
4:39 PM 10.4 °F 0.8 °F 5.0 °F 79% 30.09 in 3.0 mi WSW 5.8 mph - 0.00 in Snow Light Snow
4:51 PM 10.0 °F 3.6 °F 5.0 °F 80% 30.22 in 5.0 mi West 3.5 mph - 0.00 in   Haze
5:02 PM 10.4 °F 4.0 °F 5.0 °F 79% 30.11 in 5.0 mi WSW 3.5 mph - N/A   Haze
5:51 PM 10.0 °F 3.6 °F 7.0 °F 87% 30.25 in 5.0 mi SSW 3.5 mph - 0.00 in   Overcast
6:07 PM 10.4 °F - 6.8 °F 85% 30.13 in 2.5 mi Calm Calm - 0.00 in Snow Light Snow
6:21 PM 10.4 °F 2.2 °F 6.8 °F 85% 30.14 in 4.0 mi SW 4.6 mph - 0.00 in Snow Light Snow
6:51 PM 10.0 °F 0.4 °F 7.0 °F 87% 30.27 in 9.0 mi SW 5.8 mph - 0.00 in   Overcast
7:51 PM 10.9 °F 4.7 °F 7.0 °F 84% 30.28 in 10.0 mi SSW 3.5 mph - N/A   Overcast
8:51 PM 10.9 °F 0.2 °F 8.1 °F 88% 30.33 in 5.0 mi WSW 6.9 mph - N/A   Overcast
9:18 PM 10.4 °F 2.2 °F 8.6 °F 92% 30.23 in 2.5 mi SW 4.6 mph - N/A   Overcast
9:25 PM 10.4 °F 0.8 °F 8.6 °F 92% 30.24 in 3.0 mi SW 5.8 mph - N/A   Overcast
9:51 PM 10.9 °F 0.2 °F 9.0 °F 92% 30.38 in 3.0 mi SW 6.9 mph - N/A   Overcast
10:49 PM 12.2 °F 1.7 °F 10.4 °F 92% 30.29 in 2.5 mi SSW 6.9 mph - 0.00 in   Overcast
10:50 PM 12.0 °F 1.5 °F 10.0 °F 92% 30.40 in 2.5 mi SSW 6.9 mph - 0.00 in   Overcast
11:11 PM 12.2 °F 2.9 °F 10.4 °F 92% 30.30 in 3.0 mi SW 5.8 mph - N/A   Overcast
11:51 PM 12.9 °F 6.9 °F 10.9 °F 92% 30.42 in 5.0 mi South 3.5 mph - N/A   Overcast